Flag for Germany Weather past 2 weeks in Gütersloh, North Rhine-Westphalia, Germany

Now
56 °F

Fog.


Feels Like: 56 °F
Forecast: 49 / 66 °F
Wind: 1 mph from Southwest

Location: Bad Lippspringe

Current Time: Aug 31, 2014 at 9:19:18 AM

Latest Report: Aug 31, 2014 at 8:00 AM


Visibility: 3 mi

Pressure: 29.95 "Hg

Humidity: 93%

Dew point: 54 °F

Location of GüterslohLocation

Historic Weather in Gütersloh — Graph

°F

Gütersloh temperature yesterday

Maximum temperature yesterday: 64 °F (at 1:00 PM)
Minimum temperature yesterday: 56 °F (at 12:00 AM)
Average temperature yesterday: 60 °F

Past Weeks' High & Low Weather Summary

 TemperatureHumidityPressure
High72 °F (Aug 28, 3:00 PM)99% (Aug 27, 5:00 AM)30.09 "Hg (Aug 27, 5:00 AM)
Low42 °F (Aug 25, 7:00 AM)47% (Aug 20, 4:00 PM)29.65 "Hg (Aug 18, 10:00 AM)
Average57 °F79%29.93 "Hg
* Reported Aug 16 8:00 AM — Aug 31 8:00 AM, Gütersloh, Weather by CustomWeather, © 2014

Note: Actual official high and low records may vary slightly from our data, if they occured in-between our weather recording intervals... More about our weather records

Advertising

Gütersloh weather history for previous 24 hours

 ConditionsComfort  
Time TempWeatherWind HumidityBarometerVisibility
8:00 AM
Aug 31
56 °FFog.1 mph93%29.95 "Hg3 mi
7:00 AM55 °FFog.1 mph95%29.96 "Hg2 mi
6:00 AM56 °FLow clouds.3 mph95%29.95 "Hg2 mi
5:00 AM56 °FFog.2 mph95%29.95 "Hg2 mi
4:00 AM56 °FFog.3 mph94%29.96 "Hg3 mi
3:00 AM57 °FFog.3 mph95%29.97 "Hg2 mi
2:00 AM57 °FFog.3 mph95%29.98 "Hg2 mi
1:00 AM58 °FLow clouds.2 mph95%29.99 "Hg4 mi
12:00 AM59 °FLight rain. Low clouds.3 mph95%29.99 "Hg2 mi
11:00 PM
Aug 30
59 °FOvercast.2 mph95%29.98 "Hg4 mi
10:00 PM61 °FOvercast.5 mph87%29.99 "Hg13 mi
9:00 PM63 °FOvercast.5 mph79%29.98 "Hg16 mi
8:00 PM61 °FLight freezing rain. Overcast.1 mph92%29.97 "Hg6 mi
7:00 PM62 °FOvercast.1 mph85%29.97 "Hg12 mi
6:00 PM63 °FOvercast.3 mph80%29.99 "Hg16 mi
5:00 PM60 °FOvercast.1 mph92%30.00 "Hg7 mi
4:00 PM62 °FDrizzle. Overcast.2 mph83%30.00 "Hg11 mi
3:00 PM61 °FLight freezing rain. Overcast.6 mph83%30.02 "Hg4 mi
2:00 PM63 °FOvercast.7 mph75%30.01 "Hg22 mi
1:00 PM64 °FOvercast.5 mph73%30.01 "Hg16 mi
12:00 PM63 °FOvercast.5 mph73%30.02 "Hg17 mi
11:00 AM63 °FOvercast.6 mph74%30.02 "Hg19 mi
10:00 AM62 °FOvercast.5 mph76%30.02 "Hg19 mi
9:00 AM60 °FOvercast.3 mph78%30.02 "Hg19 mi
Weather by CustomWeather, © 2014

See weather overviewHow to use our weather pages